Location: Schoeneck
(50.3760°N, 12.3330°E)
Time: 15:59:41
(UTC+01:00)

ISS - Visible Passes

Search period start: 23 November 2017 00:00
Search period end: 03 December 2017 00:00
Orbit: 402 x 407 km, 51.6° (Epoch: 24 November)

Date Brightness Start Highest point End Pass type
(mag) Time Alt. Az. Time Alt. Az. Time Alt. Az.
28 Nov -1.7 18:16:19 10° S 18:17:50 17° SSE 18:17:50 17° SSE visible
29 Nov -1.5 17:25:15 10° SSE 17:26:38 12° SE 17:27:45 11° ESE visible
29 Nov -1.3 18:59:19 10° SW 19:00:25 19° SW 19:00:25 19° SW visible
30 Nov -2.9 18:07:13 10° SW 18:10:13 34° SSE 18:10:14 34° SSE visible
01 Dec -2.1 17:15:22 10° SSW 17:17:59 22° SE 17:20:01 13° E visible
01 Dec -1.9 18:50:51 10° WSW 18:52:40 30° WSW 18:52:40 30° WSW visible
02 Dec -3.6 17:58:32 10° WSW 18:01:46 58° SSE 18:02:23 47° ESE visible
02 Dec -0.2 19:34:58 10° W 19:35:02 10° W 19:35:02 10° W visible
